• In Hungary
  • List of Countries
  • For 7 days
  • Water Temperature
  • Satellite Maps
  • Weather Map
  • News
  • Weather Widgets
  • user-avatar
    Login

    Hourly Weather San José de Bocay

    Today, 19 February, Monday

    Time Temperature Precipitation Wind Pressure Humidity
    00:00 +19°C° 0 mm 1 mps 718 mmHg 98%
    01:00 +19°C° 0 mm 1 mps 718 mmHg 98%
    02:00 +19°C° 0 mm 1 mps 718 mmHg 98%
    03:00 +19°C° 0 mm 1 mps 717 mmHg 98%
    04:00 +19°C° 0.1 mm 1 mps 717 mmHg 97%
    05:00 +20°C° 0.1 mm 1 mps 718 mmHg 97%
    06:00 +20°C° 0.1 mm 1 mps 718 mmHg 96%
    07:00 +21°C° 0.1 mm 1 mps 718 mmHg 93%
    08:00 +21°C° 0.1 mm 2 mps 719 mmHg 89%
    09:00 +23°C° 0.1 mm 2 mps 719 mmHg 85%
    10:00 +25°C° 0.2 mm 2 mps 719 mmHg 79%
    11:00 +26°C° 0.2 mm 3 mps 718 mmHg 72%
    12:00 +27°C° 0.2 mm 3 mps 718 mmHg 66%
    13:00 +28°C° 0.1 mm 3 mps 718 mmHg 63%
    14:00 +28°C° 0.1 mm 3 mps 717 mmHg 60%
    15:00 +29°C° 0.1 mm 3 mps 716 mmHg 57%
    16:00 +27°C° 0.2 mm 3 mps 716 mmHg 68%
    17:00 +25°C° 0.2 mm 2 mps 716 mmHg 79%
    18:00 +21°C° 0.2 mm 2 mps 717 mmHg 90%
    19:00 +22°C° 0.1 mm 1 mps 717 mmHg 92%
    20:00 +21°C° 0.1 mm 1 mps 718 mmHg 95%
    21:00 +20°C° 0.1 mm 1 mps 718 mmHg 97%
    22:00 +20°C° 0.2 mm 1 mps 718 mmHg 97%
    23:00 +20°C° 0.2 mm 1 mps 718 mmHg 98%

    Tomorrow, 20 February, Tuesday

    Time Temperature Precipitation Wind Pressure Humidity
    00:00 +20°C° 0.2 mm 1 mps 718 mmHg 98%
    01:00 +20°C° 0.2 mm 1 mps 718 mmHg 98%
    02:00 +20°C° 0.2 mm 1 mps 718 mmHg 98%
    03:00 +20°C° 0.2 mm 1 mps 717 mmHg 98%
    04:00 +20°C° 0 mm 1 mps 718 mmHg 98%
    05:00 +19°C° 0 mm 1 mps 718 mmHg 98%
    06:00 +19°C° 0 mm 1 mps 718 mmHg 98%
    07:00 +21°C° 0.1 mm 1 mps 719 mmHg 95%
    08:00 +22°C° 0.1 mm 1 mps 719 mmHg 91%
    09:00 +23°C° 0.1 mm 2 mps 720 mmHg 87%
    10:00 +25°C° 0.1 mm 2 mps 719 mmHg 77%
    11:00 +27°C° 0.1 mm 3 mps 719 mmHg 67%
    12:00 +29°C° 0.1 mm 3 mps 719 mmHg 56%
    13:00 +28°C° 0.2 mm 3 mps 718 mmHg 60%
    14:00 +28°C° 0.2 mm 3 mps 717 mmHg 64%
    15:00 +27°C° 0.2 mm 3 mps 717 mmHg 68%
    16:00 +25°C° 0.3 mm 3 mps 717 mmHg 77%
    17:00 +24°C° 0.3 mm 2 mps 717 mmHg 86%
    18:00 +22°C° 0.3 mm 1 mps 718 mmHg 94%
    19:00 +22°C° 0.1 mm 1 mps 718 mmHg 95%
    20:00 +21°C° 0.1 mm 1 mps 719 mmHg 96%
    21:00 +21°C° 0.1 mm 1 mps 719 mmHg 98%
    22:00 +21°C° 0.1 mm 1 mps 719 mmHg 98%
    23:00 +21°C° 0.1 mm 1 mps 719 mmHg 98%

    Day after tomorrow, 21 February, Wednesday

    Time Temperature Precipitation Wind Pressure Humidity
    00:00 +20°C° 0.1 mm 1 mps 719 mmHg 98%
    01:00 +20°C° 0.1 mm 1 mps 719 mmHg 98%
    02:00 +20°C° 0.1 mm 1 mps 718 mmHg 98%
    03:00 +20°C° 0.1 mm 1 mps 718 mmHg 98%
    04:00 +20°C° 0.1 mm 1 mps 718 mmHg 98%
    05:00 +20°C° 0.1 mm 1 mps 718 mmHg 98%
    06:00 +20°C° 0.1 mm 1 mps 719 mmHg 98%
    07:00 +21°C° 0.2 mm 1 mps 719 mmHg 97%
    08:00 +21°C° 0.2 mm 2 mps 720 mmHg 95%
    09:00 +21°C° 0.2 mm 2 mps 720 mmHg 94%
    10:00 +23°C° 0.4 mm 2 mps 720 mmHg 90%
    11:00 +24°C° 0.4 mm 3 mps 719 mmHg 86%
    12:00 +25°C° 0.4 mm 3 mps 719 mmHg 82%
    13:00 +26°C° 0.3 mm 3 mps 719 mmHg 76%
    14:00 +26°C° 0.3 mm 3 mps 718 mmHg 71%
    15:00 +27°C° 0.3 mm 3 mps 718 mmHg 66%
    16:00 +25°C° 0.2 mm 3 mps 718 mmHg 74%
    17:00 +24°C° 0.2 mm 2 mps 718 mmHg 82%
    18:00 +22°C° 0.2 mm 1 mps 718 mmHg 89%
    19:00 +22°C° 0.2 mm 1 mps 719 mmHg 92%
    20:00 +21°C° 0.2 mm 1 mps 719 mmHg 94%
    21:00 +21°C° 0.2 mm 1 mps 720 mmHg 97%
    22:00 +21°C° 0.1 mm 1 mps 720 mmHg 97%
    23:00 +21°C° 0.1 mm 1 mps 720 mmHg 97%

    22 February, Thursday

    Time Temperature Precipitation Wind Pressure Humidity
    00:00 +21°C° 0.1 mm 1 mps 720 mmHg 97%
    01:00 +21°C° 0.2 mm 1 mps 719 mmHg 98%
    02:00 +21°C° 0.2 mm 1 mps 719 mmHg 98%
    03:00 +21°C° 0.2 mm 1 mps 719 mmHg 98%
    04:00 +21°C° 0.2 mm 1 mps 719 mmHg 98%
    05:00 +21°C° 0.2 mm 1 mps 719 mmHg 98%
    06:00 +20°C° 0.2 mm 1 mps 719 mmHg 98%
    07:00 +21°C° 0.2 mm 2 mps 720 mmHg 94%
    08:00 +23°C° 0.2 mm 2 mps 720 mmHg 90%
    09:00 +24°C° 0.2 mm 2 mps 721 mmHg 87%
    10:00 +25°C° 0.2 mm 3 mps 720 mmHg 79%
    11:00 +26°C° 0.2 mm 3 mps 720 mmHg 72%
    12:00 +28°C° 0.2 mm 3 mps 720 mmHg 65%
    13:00 +27°C° 0.4 mm 3 mps 719 mmHg 66%
    14:00 +27°C° 0.4 mm 3 mps 718 mmHg 68%
    15:00 +27°C° 0.4 mm 3 mps 718 mmHg 70%
    16:00 +25°C° 0.3 mm 3 mps 718 mmHg 78%
    17:00 +24°C° 0.3 mm 2 mps 718 mmHg 86%
    18:00 +22°C° 0.3 mm 1 mps 718 mmHg 93%
    19:00 +21°C° 0.2 mm 1 mps 719 mmHg 95%
    20:00 +21°C° 0.2 mm 1 mps 719 mmHg 96%
    21:00 +20°C° 0.2 mm 1 mps 719 mmHg 98%
    22:00 +20°C° 0.1 mm 1 mps 719 mmHg 98%
    23:00 +21°C° 0.1 mm 1 mps 719 mmHg 98%

    23 February, Friday

    Time Temperature Precipitation Wind Pressure Humidity
    00:00 +21°C° 0.1 mm 1 mps 719 mmHg 97%
    01:00 +21°C° 0.2 mm 1 mps 719 mmHg 98%
    02:00 +20°C° 0.2 mm 1 mps 718 mmHg 98%
    03:00 +20°C° 0.2 mm 1 mps 718 mmHg 98%
    04:00 +20°C° 0.1 mm 1 mps 718 mmHg 98%
    05:00 +20°C° 0.1 mm 1 mps 718 mmHg 98%
    06:00 +20°C° 0.1 mm 1 mps 719 mmHg 98%
    07:00 +21°C° 0.1 mm 1 mps 719 mmHg 94%
    08:00 +21°C° 0.1 mm 2 mps 719 mmHg 90%
    09:00 +24°C° 0.1 mm 2 mps 720 mmHg 87%
    10:00 +25°C° 0.2 mm 2 mps 719 mmHg 80%
    11:00 +26°C° 0.2 mm 3 mps 719 mmHg 74%
    12:00 +27°C° 0.2 mm 3 mps 718 mmHg 67%
    13:00 +27°C° 0.2 mm 3 mps 718 mmHg 64%
    14:00 +28°C° 0.2 mm 3 mps 717 mmHg 62%
    15:00 +28°C° 0.2 mm 3 mps 717 mmHg 59%
    16:00 +26°C° 0.2 mm 2 mps 717 mmHg 69%
    17:00 +24°C° 0.2 mm 2 mps 717 mmHg 80%
    18:00 +22°C° 0.2 mm 1 mps 717 mmHg 91%
    19:00 +22°C° 0.1 mm 1 mps 717 mmHg 93%
    20:00 +21°C° 0.1 mm 1 mps 718 mmHg 95%
    21:00 +20°C° 0.1 mm 1 mps 718 mmHg 98%
    22:00 +20°C° 0.1 mm 1 mps 718 mmHg 98%
    23:00 +20°C° 0.1 mm 1 mps 718 mmHg 98%

    24 February, Saturday

    Time Temperature Precipitation Wind Pressure Humidity
    00:00 +20°C° 0.1 mm 1 mps 718 mmHg 98%
    01:00 +20°C° 0.1 mm 1 mps 718 mmHg 98%
    02:00 +20°C° 0.1 mm 1 mps 717 mmHg 98%
    03:00 +20°C° 0.1 mm 1 mps 717 mmHg 98%
    04:00 +20°C° 0.1 mm 1 mps 717 mmHg 98%
    05:00 +20°C° 0.1 mm 1 mps 718 mmHg 98%
    06:00 +20°C° 0.1 mm 1 mps 718 mmHg 98%
    07:00 +21°C° 0.2 mm 1 mps 718 mmHg 94%
    08:00 +22°C° 0.2 mm 1 mps 719 mmHg 91%
    09:00 +23°C° 0.2 mm 2 mps 719 mmHg 87%
    10:00 +24°C° 0.5 mm 2 mps 719 mmHg 83%
    11:00 +25°C° 0.5 mm 2 mps 718 mmHg 79%
    12:00 +26°C° 0.5 mm 2 mps 718 mmHg 75%
    13:00 +26°C° 0.7 mm 2 mps 717 mmHg 76%
    14:00 +26°C° 0.7 mm 2 mps 717 mmHg 76%
    15:00 +26°C° 0.7 mm 2 mps 716 mmHg 77%
    16:00 +24°C° 0.5 mm 2 mps 716 mmHg 82%
    17:00 +23°C° 0.5 mm 1 mps 716 mmHg 87%
    18:00 +21°C° 0.5 mm 1 mps 717 mmHg 92%
    19:00 +21°C° 0 mm 1 mps 717 mmHg 93%
    20:00 +18°C° 0 mm 0 mps 718 mmHg 95%
    21:00 +17°C° 0 mm 0 mps 718 mmHg 96%
    22:00 +17°C° 0 mm 0 mps 718 mmHg 96%
    23:00 +17°C° 0 mm 0 mps 718 mmHg 97%
    Show more